Miscellaneous Local Product
Issued by NWS Hastings, NE

Home | Current Version | Previous Version | Graphics & Text | Print | Product List | Glossary On
Versions: 1 2 3 4 5 6 7 8 9 10 11 12 13 14 15 16 17 18 19 20 21 22 23 24 25 26 27 28 29 30 31 32 33 34 35 36 37 38 39 40 41 42 43 44 45 46 47 48 49 50
000
AXUS43 KGID 281102
MISGRI

GID CWA HOURLY WEATHER ROUNDUP
NATIONAL WEATHER SERVICE HASTINGS NE
500 AM CST SAT FEB 28 2015

NOTE: "FAIR" INDICATES FEW OR NO CLOUDS BELOW 12,000 FEET WITH NO
SIGNIFICANT WEATHER AND/OR OBSTRUCTIONS TO VISIBILITY.

...SOUTH CENTRAL NEBRASKA...

CITY           SKY/WX    TMP DP  RH WIND       PRES   REMARKS
GRAND ISLAND   CLEAR      7   4  87 S9        30.35S WCI  -7
HASTINGS       CLEAR      6   3  87 S9        30.32S WCI  -8
KEARNEY        CLOUDY     9   3  78 S7        30.30R WCI  -3
ORD            CLOUDY    10   3  73 SE7       30.28S WCI  -1
YORK           CLEAR      7   3  85 S7        30.38F WCI  -5
AURORA         CLEAR      7   2  82 S6        30.35F WCI  -3
LEXINGTON      CLOUDY    15   8  75 S13       30.24S WCI   1
HOLDREGE       FLURRIES  10   6  85 SE7       30.27S WCI  -2
HEBRON         CLEAR      5   0  82 SE5       30.41S WCI  -4

...NEBRASKA PANHANDLE...

CITY           SKY/WX    TMP DP  RH WIND       PRES   REMARKS
CHADRON        CLEAR      7   2  80 SW8       30.03S WCI  -6
ALLIANCE       CLEAR      5   1  83 S6        30.00R WCI  -6
SCOTTSBLUFF    CLEAR      7   3  84 E7        29.99R WCI  -5
SIDNEY         CLEAR      4  -1  80 S5        29.98R WCI  -5

...WESTERN AND NORTH CENTRAL NEBRASKA...

CITY           SKY/WX    TMP DP  RH WIND       PRES   REMARKS
VALENTINE      CLEAR     14   6  70 S10       30.13F WCI   1
AINSWORTH      CLEAR     10   5  80 SE9       30.16F WCI  -3
ONEILL         CLEAR      9   4  78 S10       30.27F WCI  -5
BROKEN BOW     CLOUDY    14   6  70 S9        30.22S WCI   2
IMPERIAL         N/A     14   7  73 S14       30.10F WCI  -1
NORTH PLATTE   CLOUDY    14   6  70 S10       30.17S WCI   1
MCCOOK         CLOUDY    16   8  71 S16       30.20S WCI   1

...EASTERN NEBRASKA...

CITY           SKY/WX    TMP DP  RH WIND       PRES   REMARKS
NORFOLK        CLEAR      8   1  73 S10       30.37S WCI  -6
SO SIOUX CITY  CLEAR      2  -3  80 E8        30.46S WCI -12
TEKAMAH        CLEAR      3  -2  79 S5        30.48S WCI  -6
COLUMBUS       CLEAR      9  -2  61 S9        30.40F WCI  -5
ALBION         CLEAR      6   0  77 SE6       30.34F WCI  -5
OMAHA EPPLEY   CLEAR      6   1  80 SE6       30.50S WCI  -4
OFFUTT AFB     CLEAR      5  -1  76 SE7       30.49R WCI  -7
MILLARD        CLEAR      9   2  73 SE5       30.48S WCI   0
LINCOLN        CLEAR      7   1  76 S5        30.45F WCI  -2
NEBRASKA CITY  CLEAR      6  -3  66 S3        30.47S
BEATRICE       CLEAR     10   2  71 SE3       30.44S
FALLS CITY     PTCLDY    11   4  73 SE5       30.50S WCI   3

...NORTHERN KANSAS...

CITY           SKY/WX    TMP DP  RH WIND       PRES   REMARKS
GOODLAND       LGT SNOW  10   7  87 S15       30.08F FOG     WCI  -7
HILL CITY      CLOUDY    13   7  77 S13       30.29S WCI  -2
NORTON         FLURRIES  12   7  79 SE12      30.24F WCI  -2
PHILLIPSBURG   CLOUDY    16  10  79 SE8       30.33S WCI   5
SMITH CENTER   FLURRIES   9   7  92 SE8       30.36S WCI  -4
BELOIT         PTCLDY     9   7  92 SE5       30.40S WCI   0
HAYS           CLOUDY    14   3  62 SE8       30.31R WCI   3
RUSSELL        LGT SNOW  14  11  87 SE9       30.32F FOG     WCI   2
CONCORDIA      PTCLDY     9   6  88 S8        30.40F WCI  -3
SALINA         CLOUDY    16  10  77 SE9       30.43S WCI   4
TOPEKA         MOCLDY    13   5  70 CALM      30.51R



USA.gov is the U.S. government's official web portal to all federal, state and local government web resources and services.